QPF
0.00 0.00 0.00 0.00 0.00 0.00 0.00 0.00 0.00 0.01 0.02 0.03 0.03 0.03 0.02 0.01 0.01 0.03 0.02 0.02 0.01 0.01 0.00 0.01 0.01 0.01 0.01 0.00 0.00 0.00 0.00 0.00 0.00 0.01 0.01 0.02 0.01 0.01 0.00 0.01 0.02 0.04 0.03 0.03 0.03 0.04 0.05 0.04 0.05
0.00 0.00 0.00 0.00 0.00 0.00 0.00 0.00 0.00 0.01 0.02 0.03 0.03 0.02 0.02 0.01 0.01 0.01 0.01 0.01 0.00 0.00 0.00 0.00 0.01 0.01 0.01 0.01 0.00 0.01 0.01 0.01 0.01 0.01 0.01 0.01 0.01 0.01 0.01 0.01 0.01 0.04 0.04 0.04 0.04 0.04 0.05 0.04 0.04
0.00 0.00 0.00 0.00 0.00 0.00 0.00 0.00 0.00 0.01 0.02 0.04 0.02 0.02 0.02 0.02 0.01 0.01 0.01 0.01 0.01 0.01 0.00 0.00 0.01 0.01 0.00 0.00 0.00 0.00 0.01 0.01 0.02 0.02 0.01 0.02 0.01 0.01 0.01 0.01 0.01 0.03 0.03 0.03 0.02 0.03 0.04 0.03 0.02
0.00 0.00 0.00 0.00 0.00 0.00 0.00 0.00 0.00 0.01 0.02 0.02 0.02 0.03 0.03 0.02 0.01 0.02 0.02 0.01 0.02 0.02 0.01 0.01 0.01 0.01 0.01 0.01 0.01 0.01 0.01 0.01 0.01 0.01 0.01 0.01 0.02 0.02 0.02 0.02 0.02 0.02 0.03 0.03 0.02 0.02 0.03 0.02 0.02
0.00 0.00 0.00 0.00 0.00 0.00 0.00 0.00 0.00 0.01 0.02 0.01 0.01 0.02 0.05 0.03 0.02 0.02 0.02 0.01 0.01 0.02 0.03 0.02 0.02 0.02 0.02 0.02 0.01 0.01 0.01 0.02 0.01 0.01 0.01 0.01 0.01 0.02 0.02 0.02 0.02 0.02 0.03 0.02 0.02 0.02 0.02 0.02 0.02
0.00 0.00 0.00 0.00 0.00 0.00 0.00 0.00 0.01 0.02 0.02 0.01 0.00 0.01 0.02 0.02 0.02 0.02 0.02 0.02 0.00 0.01 0.02 0.03 0.04 0.03 0.02 0.02 0.02 0.01 0.01 0.02 0.02 0.01 0.01 0.01 0.01 0.01 0.01 0.02 0.03 0.03 0.02 0.02 0.02 0.02 0.02 0.02 0.02
0.00 0.00 0.00 0.00 0.00 0.00 0.00 0.00 0.02 0.03 0.02 0.01 0.00 0.00 0.01 0.02 0.04 0.04 0.03 0.02 0.01 0.02 0.03 0.04 0.05 0.05 0.03 0.03 0.02 0.02 0.02 0.02 0.02 0.02 0.01 0.01 0.01 0.02 0.02 0.02 0.03 0.03 0.03 0.03 0.02 0.02 0.01 0.02 0.02
0.00 0.00 0.00 0.00 0.00 0.00 0.00 0.00 0.01 0.01 0.01 0.01 0.00 0.00 0.00 0.01 0.03 0.06 0.05 0.03 0.02 0.04 0.04 0.04 0.06 0.10 0.09 0.06 0.04 0.03 0.02 0.02 0.02 0.02 0.01 0.02 0.02 0.03 0.03 0.03 0.03 0.03 0.03 0.02 0.03 0.03 0.03 0.03 0.03
0.00 0.00 0.00 0.00 0.00 0.00 0.00 0.00 0.00 0.00 0.00 0.00 0.00 0.00 0.00 0.01 0.02 0.04 0.06 0.05 0.03 0.03 0.03 0.03 0.04 0.06 0.08 0.07 0.05 0.04 0.03 0.03 0.03 0.02 0.02 0.02 0.01 0.01 0.03 0.03 0.05 0.05 0.04 0.03 0.03 0.03 0.03 0.03 0.04
0.00 0.00 0.00 0.00 0.00 0.00 0.00 0.00 0.00 0.00 0.00 0.00 0.00 0.00 0.00 0.01 0.03 0.05 0.07 0.05 0.04 0.03 0.03 0.04 0.04 0.04 0.04 0.05 0.05 0.06 0.06 0.06 0.06 0.04 0.02 0.01 0.01 0.01 0.02 0.05 0.07 0.06 0.05 0.05 0.05 0.05 0.04 0.03 0.02
0.00 0.00 0.00 0.00 0.00 0.00 0.00 0.00 0.00 0.00 0.00 0.01 0.01 0.01 0.01 0.03 0.03 0.04 0.06 0.05 0.05 0.04 0.04 0.03 0.03 0.04 0.05 0.05 0.07 0.07 0.09 0.13 0.15 0.08 0.04 0.03 0.03 0.03 0.04 0.05 0.05 0.04 0.04 0.03 0.03 0.03 0.03 0.02 0.02
0.00 0.00 0.00 0.00 0.00 0.00 0.00 0.00 0.00 0.00 0.00 0.00 0.00 0.01 0.02 0.03 0.03 0.04 0.04 0.04 0.08 0.05 0.05 0.05 0.04 0.03 0.05 0.05 0.06 0.07 0.09 0.12 0.12 0.06 0.04 0.04 0.05 0.04 0.03 0.03 0.03 0.03 0.03 0.03 0.03 0.03 0.03 0.03 0.03
0.00 0.00 0.00 0.00 0.00 0.00 0.00 0.00 0.00 0.00 0.00 0.00 0.00 0.01 0.02 0.04 0.06 0.07 0.05 0.03 0.02 0.03 0.03 0.04 0.04 0.04 0.04 0.04 0.04 0.04 0.05 0.08 0.07 0.06 0.05 0.05 0.04 0.03 0.03 0.03 0.02 0.02 0.02 0.02 0.03 0.02 0.03 0.03 0.03
0.00 0.00 0.00 0.00 0.00 0.00 0.00 0.00 0.00 0.00 0.00 0.00 0.00 0.01 0.01 0.02 0.03 0.04 0.03 0.02 0.02 0.03 0.03 0.03 0.03 0.03 0.03 0.04 0.04 0.04 0.05 0.04 0.04 0.05 0.06 0.05 0.03 0.02 0.03 0.03 0.03 0.02 0.02 0.01 0.02 0.02 0.02 0.01 0.01
0.00 0.00 0.00 0.00 0.00 0.00 0.00 0.00 0.00 0.00 0.00 0.00 0.00 0.01 0.01 0.01 0.02 0.01 0.01 0.01 0.02 0.03 0.03 0.04 0.04 0.04 0.04 0.03 0.04 0.03 0.04 0.03 0.03 0.04 0.05 0.05 0.04 0.03 0.02 0.02 0.03 0.02 0.02 0.02 0.02 0.03 0.02 0.01 0.01
0.01 0.01 0.01 0.01 0.00 0.00 0.00 0.00 0.00 0.00 0.00 0.00 0.00 0.00 0.00 0.01 0.01 0.01 0.01 0.02 0.02 0.03 0.04 0.05 0.05 0.04 0.04 0.03 0.03 0.04 0.04 0.05 0.05 0.03 0.03 0.04 0.05 0.04 0.04 0.03 0.03 0.02 0.02 0.02 0.03 0.03 0.02 0.02 0.02
0.01 0.00 0.01 0.01 0.01 0.00 0.00 0.00 0.00 0.00 0.00 0.00 0.00 0.00 0.00 0.01 0.01 0.02 0.02 0.02 0.04 0.06 0.06 0.07 0.07 0.06 0.06 0.05 0.03 0.05 0.06 0.07 0.06 0.05 0.03 0.04 0.05 0.05 0.06 0.04 0.04 0.03 0.03 0.02 0.03 0.03 0.02 0.02 0.02
0.01 0.01 0.02 0.02 0.01 0.01 0.01 0.00 0.00 0.00 0.01 0.00 0.01 0.00 0.01 0.01 0.01 0.02 0.02 0.03 0.04 0.06 0.07 0.07 0.08 0.08 0.08 0.06 0.04 0.05 0.07 0.08 0.06 0.06 0.05 0.04 0.05 0.05 0.06 0.05 0.04 0.05 0.04 0.04 0.04 0.04 0.04 0.03 0.03
0.00 0.01 0.02 0.02 0.01 0.01 0.01 0.00 0.00 0.01 0.00 0.01 0.02 0.02 0.02 0.02 0.03 0.03 0.02 0.02 0.04 0.06 0.08 0.09 0.10 0.11 0.09 0.06 0.04 0.04 0.06 0.09 0.08 0.09 0.07 0.06 0.06 0.06 0.07 0.07 0.06 0.06 0.05 0.04 0.04 0.04 0.03 0.03 0.03
0.01 0.01 0.01 0.01 0.01 0.01 0.01 0.00 0.01 0.01 0.01 0.02 0.03 0.03 0.03 0.03 0.03 0.03 0.03 0.02 0.04 0.05 0.06 0.08 0.11 0.12 0.11 0.08 0.06 0.06 0.07 0.07 0.08 0.09 0.08 0.08 0.10 0.10 0.09 0.09 0.07 0.07 0.05 0.04 0.03 0.02 0.02 0.02 0.04
0.01 0.01 0.00 0.00 0.01 0.01 0.01 0.01 0.01 0.02 0.02 0.03 0.03 0.03 0.02 0.01 0.01 0.01 0.01 0.02 0.02 0.03 0.05 0.08 0.10 0.10 0.11 0.10 0.09 0.08 0.08 0.10 0.12 0.12 0.11 0.09 0.11 0.11 0.10 0.11 0.10 0.09 0.07 0.05 0.03 0.02 0.02 0.02 0.03
0.00 0.00 0.01 0.01 0.01 0.01 0.01 0.01 0.01 0.02 0.02 0.02 0.01 0.01 0.01 0.01 0.00 0.01 0.01 0.02 0.02 0.04 0.05 0.08 0.09 0.08 0.07 0.08 0.08 0.08 0.07 0.10 0.15 0.14 0.12 0.11 0.11 0.10 0.07 0.06 0.07 0.08 0.08 0.07 0.05 0.04 0.03 0.03 0.03
0.01 0.00 0.01 0.01 0.01 0.01 0.01 0.01 0.01 0.01 0.01 0.01 0.01 0.01 0.01 0.00 0.00 0.01 0.02 0.03 0.03 0.04 0.04 0.05 0.06 0.06 0.05 0.06 0.07 0.09 0.09 0.08 0.09 0.11 0.13 0.11 0.09 0.08 0.05 0.05 0.05 0.04 0.05 0.06 0.06 0.06 0.05 0.05 0.05
0.01 0.01 0.01 0.01 0.01 0.02 0.01 0.01 0.01 0.01 0.00 0.00 0.01 0.01 0.01 0.00 0.00 0.00 0.01 0.02 0.02 0.03 0.03 0.04 0.05 0.06 0.06 0.06 0.05 0.07 0.07 0.06 0.06 0.06 0.07 0.07 0.07 0.06 0.05 0.05 0.05 0.05 0.05 0.04 0.05 0.05 0.06 0.07 0.06
0.01 0.01 0.01 0.01 0.02 0.02 0.01 0.00 0.00 0.00 0.01 0.01 0.01 0.01 0.01 0.01 0.01 0.01 0.01 0.01 0.02 0.03 0.03 0.04 0.04 0.05 0.05 0.04 0.03 0.04 0.05 0.06 0.05 0.04 0.03 0.03 0.03 0.03 0.03 0.04 0.04 0.03 0.03 0.03 0.04 0.04 0.04 0.05 0.06
0.01 0.01 0.01 0.01 0.02 0.01 0.01 0.00 0.01 0.01 0.01 0.01 0.01 0.01 0.01 0.01 0.01 0.01 0.01 0.02 0.03 0.04 0.05 0.04 0.04 0.03 0.03 0.03 0.02 0.03 0.04 0.06 0.05 0.03 0.03 0.02 0.02 0.02 0.03 0.03 0.03 0.02 0.02 0.03 0.04 0.04 0.04 0.04 0.05
0.01 0.01 0.01 0.01 0.01 0.01 0.01 0.00 0.01 0.01 0.01 0.01 0.01 0.01 0.01 0.01 0.02 0.02 0.02 0.03 0.04 0.05 0.05 0.04 0.04 0.03 0.03 0.02 0.02 0.02 0.03 0.06 0.05 0.04 0.04 0.03 0.02 0.02 0.03 0.03 0.03 0.02 0.03 0.04 0.04 0.03 0.03 0.04 0.05
0.00 0.00 0.01 0.01 0.01 0.02 0.01 0.01 0.01 0.01 0.01 0.02 0.02 0.02 0.01 0.01 0.02 0.02 0.03 0.03 0.03 0.03 0.02 0.02 0.03 0.03 0.03 0.02 0.02 0.02 0.04 0.05 0.05 0.05 0.03 0.02 0.02 0.03 0.03 0.03 0.02 0.03 0.03 0.03 0.03 0.02 0.03 0.03 0.03
0.00 0.00 0.01 0.01 0.01 0.02 0.02 0.01 0.01 0.01 0.01 0.01 0.01 0.01 0.01 0.01 0.01 0.02 0.02 0.02 0.02 0.03 0.02 0.02 0.02 0.02 0.02 0.03 0.03 0.03 0.04 0.04 0.04 0.04 0.03 0.02 0.02 0.03 0.03 0.03 0.03 0.03 0.02 0.02 0.02 0.02 0.03 0.03 0.02
0.00 0.01 0.01 0.01 0.01 0.02 0.02 0.01 0.01 0.00 0.01 0.01 0.01 0.01 0.01 0.02 0.02 0.01 0.02 0.02 0.02 0.03 0.02 0.02 0.02 0.02 0.03 0.03 0.03 0.03 0.04 0.04 0.03 0.03 0.02 0.02 0.03 0.02 0.03 0.03 0.03 0.03 0.02 0.02 0.02 0.01 0.02 0.02 0.02
MSLP
1008.14 1009.07 1010.09 1011.02 1011.70 1012.06 1012.07 1011.78 1011.31 1010.79 1010.32 1009.98 1009.80 1009.72 1009.67 1009.58 1009.37 1009.01 1008.52 1007.98 1007.45 1007.04 1006.78 1006.72 1006.83 1007.05 1007.31 1007.55 1007.72 1007.82 1007.86 1007.89 1007.96 1008.11 1008.34 1008.67 1009.05 1009.45 1009.83 1010.16 1010.45 1010.70 1010.94 1011.19 1011.48 1011.82 1012.19 1012.58 1012.95
1008.52 1009.62 1010.72 1011.63 1012.21 1012.37 1012.12 1011.56 1010.82 1010.04 1009.38 1008.91 1008.64 1008.53 1008.51 1008.47 1008.34 1008.09 1007.74 1007.34 1006.96 1006.69 1006.58 1006.63 1006.84 1007.13 1007.44 1007.72 1007.92 1008.05 1008.12 1008.17 1008.26 1008.42 1008.65 1008.95 1009.29 1009.63 1009.95 1010.23 1010.48 1010.70 1010.94 1011.21 1011.53 1011.90 1012.30 1012.72 1013.10
1009.01 1010.21 1011.34 1012.18 1012.62 1012.59 1012.12 1011.32 1010.36 1009.41 1008.61 1008.04 1007.72 1007.59 1007.57 1007.56 1007.49 1007.32 1007.07 1006.78 1006.54 1006.40 1006.42 1006.59 1006.88 1007.24 1007.60 1007.91 1008.13 1008.28 1008.36 1008.43 1008.52 1008.67 1008.88 1009.15 1009.44 1009.72 1009.98 1010.21 1010.42 1010.63 1010.88 1011.18 1011.55 1011.97 1012.42 1012.86 1013.27
1009.59 1010.83 1011.91 1012.65 1012.93 1012.71 1012.06 1011.11 1010.02 1008.97 1008.10 1007.49 1007.14 1007.00 1006.97 1006.97 1006.93 1006.80 1006.61 1006.42 1006.28 1006.25 1006.37 1006.63 1006.99 1007.40 1007.79 1008.10 1008.33 1008.47 1008.55 1008.62 1008.71 1008.85 1009.05 1009.28 1009.53 1009.76 1009.98 1010.17 1010.37 1010.58 1010.85 1011.19 1011.61 1012.07 1012.57 1013.04 1013.48
1010.21 1011.41 1012.39 1012.98 1013.10 1012.74 1011.96 1010.92 1009.78 1008.72 1007.87 1007.27 1006.94 1006.80 1006.76 1006.75 1006.70 1006.59 1006.43 1006.29 1006.22 1006.27 1006.47 1006.78 1007.19 1007.61 1007.99 1008.29 1008.49 1008.61 1008.67 1008.73 1008.82 1008.97 1009.16 1009.38 1009.61 1009.83 1010.02 1010.20 1010.39 1010.62 1010.91 1011.29 1011.74 1012.24 1012.76 1013.27 1013.71
1010.80 1011.90 1012.72 1013.15 1013.11 1012.62 1011.78 1010.73 1009.63 1008.64 1007.86 1007.34 1007.05 1006.93 1006.89 1006.86 1006.79 1006.66 1006.52 1006.41 1006.38 1006.48 1006.72 1007.06 1007.47 1007.87 1008.21 1008.46 1008.61 1008.69 1008.73 1008.79 1008.88 1009.04 1009.25 1009.49 1009.74 1009.96 1010.16 1010.34 1010.53 1010.77 1011.07 1011.46 1011.93 1012.45 1012.99 1013.49 1013.94
1011.27 1012.21 1012.85 1013.10 1012.92 1012.35 1011.49 1010.50 1009.50 1008.64 1008.00 1007.58 1007.36 1007.27 1007.23 1007.18 1007.09 1006.95 1006.80 1006.71 1006.71 1006.84 1007.09 1007.43 1007.81 1008.17 1008.45 1008.62 1008.71 1008.74 1008.75 1008.80 1008.92 1009.11 1009.36 1009.65 1009.93 1010.18 1010.40 1010.59 1010.79 1011.02 1011.32 1011.70 1012.16 1012.67 1013.19 1013.69 1014.13
1011.55 1012.31 1012.75 1012.82 1012.52 1011.91 1011.09 1010.19 1009.34 1008.65 1008.16 1007.87 1007.74 1007.69 1007.66 1007.59 1007.48 1007.32 1007.18 1007.10 1007.12 1007.27 1007.53 1007.85 1008.19 1008.48 1008.68 1008.78 1008.79 1008.77 1008.76 1008.82 1008.96 1009.20 1009.51 1009.85 1010.18 1010.48 1010.72 1010.92 1011.10 1011.32 1011.59 1011.94 1012.37 1012.84 1013.34 1013.82 1014.25
1011.62 1012.18 1012.42 1012.34 1011.95 1011.32 1010.57 1009.80 1009.12 1008.61 1008.29 1008.12 1008.07 1008.06 1008.04 1007.98 1007.85 1007.70 1007.57 1007.51 1007.55 1007.71 1007.97 1008.27 1008.55 1008.77 1008.89 1008.92 1008.87 1008.80 1008.78 1008.84 1009.02 1009.31 1009.68 1010.08 1010.47 1010.80 1011.06 1011.26 1011.43 1011.61 1011.84 1012.14 1012.52 1012.96 1013.42 1013.88 1014.30
1011.49 1011.85 1011.92 1011.71 1011.26 1010.65 1009.98 1009.36 1008.86 1008.51 1008.34 1008.28 1008.31 1008.34 1008.33 1008.27 1008.15 1008.01 1007.90 1007.87 1007.94 1008.11 1008.36 1008.63 1008.87 1009.03 1009.08 1009.04 1008.94 1008.85 1008.81 1008.89 1009.10 1009.44 1009.86 1010.31 1010.74 1011.10 1011.37 1011.56 1011.71 1011.85 1012.03 1012.28 1012.62 1013.02 1013.46 1013.91 1014.33
1011.23 1011.42 1011.34 1011.03 1010.55 1009.98 1009.41 1008.93 1008.57 1008.38 1008.32 1008.36 1008.44 1008.51 1008.52 1008.47 1008.36 1008.25 1008.17 1008.16 1008.25 1008.43 1008.67 1008.91 1009.11 1009.22 1009.22 1009.14 1009.01 1008.90 1008.87 1008.97 1009.21 1009.57 1010.03 1010.51 1010.96 1011.33 1011.61 1011.79 1011.91 1012.02 1012.17 1012.39 1012.69 1013.07 1013.51 1013.96 1014.40
1010.95 1010.99 1010.80 1010.42 1009.93 1009.42 1008.94 1008.58 1008.35 1008.26 1008.30 1008.40 1008.52 1008.61 1008.64 1008.61 1008.53 1008.45 1008.40 1008.42 1008.51 1008.69 1008.90 1009.11 1009.27 1009.34 1009.32 1009.22 1009.09 1008.99 1008.97 1009.07 1009.33 1009.71 1010.17 1010.66 1011.11 1011.49 1011.76 1011.93 1012.05 1012.15 1012.28 1012.49 1012.79 1013.17 1013.63 1014.11 1014.57
1010.77 1010.69 1010.41 1010.00 1009.52 1009.05 1008.66 1008.38 1008.24 1008.22 1008.31 1008.45 1008.59 1008.71 1008.77 1008.77 1008.72 1008.67 1008.64 1008.67 1008.76 1008.91 1009.08 1009.25 1009.37 1009.42 1009.39 1009.30 1009.19 1009.10 1009.10 1009.22 1009.47 1009.84 1010.29 1010.76 1011.20 1011.57 1011.84 1012.02 1012.15 1012.26 1012.41 1012.63 1012.95 1013.37 1013.86 1014.37 1014.87
1010.80 1010.63 1010.30 1009.86 1009.40 1008.97 1008.63 1008.40 1008.30 1008.31 1008.41 1008.56 1008.72 1008.86 1008.95 1008.99 1008.99 1008.97 1008.96 1008.98 1009.04 1009.14 1009.26 1009.37 1009.46 1009.49 1009.46 1009.40 1009.32 1009.27 1009.30 1009.42 1009.66 1010.00 1010.41 1010.85 1011.26 1011.61 1011.89 1012.09 1012.25 1012.40 1012.59 1012.86 1013.22 1013.68 1014.21 1014.77 1015.32
1011.07 1010.84 1010.48 1010.04 1009.60 1009.19 1008.87 1008.65 1008.53 1008.53 1008.61 1008.74 1008.91 1009.07 1009.20 1009.30 1009.35 1009.37 1009.38 1009.37 1009.39 1009.42 1009.46 1009.51 1009.55 1009.57 1009.57 1009.54 1009.52 1009.52 1009.57 1009.70 1009.92 1010.22 1010.57 1010.95 1011.32 1011.66 1011.94 1012.17 1012.37 1012.58 1012.83 1013.16 1013.58 1014.08 1014.66 1015.26 1015.84
1011.55 1011.30 1010.93 1010.51 1010.09 1009.69 1009.35 1009.10 1008.93 1008.86 1008.88 1008.98 1009.14 1009.33 1009.51 1009.68 1009.80 1009.86 1009.88 1009.85 1009.81 1009.76 1009.72 1009.70 1009.70 1009.71 1009.73 1009.76 1009.80 1009.85 1009.94 1010.08 1010.27 1010.51 1010.80 1011.11 1011.43 1011.74 1012.03 1012.30 1012.55 1012.82 1013.14 1013.52 1013.98 1014.52 1015.12 1015.75 1016.36
1012.16 1011.92 1011.58 1011.20 1010.80 1010.40 1010.03 1009.70 1009.44 1009.26 1009.19 1009.23 1009.37 1009.58 1009.82 1010.06 1010.26 1010.39 1010.43 1010.39 1010.29 1010.16 1010.04 1009.95 1009.90 1009.91 1009.97 1010.05 1010.16 1010.28 1010.41 1010.55 1010.71 1010.89 1011.10 1011.35 1011.62 1011.90 1012.19 1012.48 1012.78 1013.11 1013.48 1013.90 1014.38 1014.94 1015.55 1016.18 1016.80
1012.74 1012.56 1012.30 1011.99 1011.63 1011.23 1010.80 1010.38 1009.98 1009.67 1009.48 1009.43 1009.52 1009.74 1010.05 1010.38 1010.67 1010.87 1010.95 1010.91 1010.78 1010.59 1010.40 1010.24 1010.17 1010.18 1010.27 1010.42 1010.60 1010.79 1010.96 1011.10 1011.24 1011.37 1011.51 1011.68 1011.89 1012.14 1012.43 1012.74 1013.08 1013.44 1013.83 1014.27 1014.76 1015.30 1015.89 1016.50 1017.11
1013.15 1013.09 1012.95 1012.75 1012.45 1012.06 1011.59 1011.05 1010.51 1010.03 1009.68 1009.51 1009.55 1009.77 1010.13 1010.54 1010.93 1011.23 1011.37 1011.37 1011.22 1011.00 1010.76 1010.57 1010.48 1010.50 1010.63 1010.85 1011.10 1011.35 1011.56 1011.73 1011.84 1011.93 1012.01 1012.12 1012.28 1012.49 1012.76 1013.08 1013.43 1013.81 1014.21 1014.64 1015.10 1015.60 1016.14 1016.71 1017.30
1013.28 1013.38 1013.42 1013.36 1013.17 1012.81 1012.29 1011.65 1010.94 1010.28 1009.76 1009.46 1009.41 1009.61 1010.01 1010.51 1011.01 1011.41 1011.64 1011.70 1011.58 1011.36 1011.11 1010.90 1010.80 1010.84 1011.02 1011.29 1011.61 1011.93 1012.19 1012.38 1012.49 1012.55 1012.59 1012.65 1012.77 1012.95 1013.20 1013.52 1013.87 1014.25 1014.64 1015.03 1015.44 1015.88 1016.35 1016.86 1017.41
1013.08 1013.37 1013.62 1013.75 1013.69 1013.39 1012.85 1012.10 1011.25 1010.40 1009.70 1009.25 1009.10 1009.26 1009.68 1010.25 1010.86 1011.38 1011.73 1011.87 1011.82 1011.63 1011.40 1011.20 1011.12 1011.19 1011.40 1011.73 1012.12 1012.50 1012.81 1013.03 1013.16 1013.21 1013.23 1013.27 1013.36 1013.52 1013.76 1014.07 1014.42 1014.78 1015.14 1015.49 1015.84 1016.20 1016.59 1017.03 1017.51
1012.57 1013.07 1013.55 1013.89 1013.98 1013.76 1013.22 1012.40 1011.40 1010.38 1009.50 1008.90 1008.64 1008.75 1009.18 1009.81 1010.52 1011.16 1011.63 1011.88 1011.93 1011.81 1011.62 1011.46 1011.41 1011.51 1011.77 1012.15 1012.59 1013.03 1013.39 1013.66 1013.81 1013.88 1013.91 1013.95 1014.04 1014.20 1014.44 1014.75 1015.09 1015.43 1015.76 1016.06 1016.35 1016.63 1016.94 1017.29 1017.70
1011.88 1012.59 1013.28 1013.81 1014.06 1013.93 1013.40 1012.52 1011.41 1010.24 1009.21 1008.45 1008.09 1008.14 1008.56 1009.24 1010.04 1010.79 1011.39 1011.77 1011.93 1011.91 1011.80 1011.70 1011.69 1011.83 1012.12 1012.54 1013.03 1013.51 1013.93 1014.24 1014.44 1014.55 1014.61 1014.68 1014.78 1014.96 1015.21 1015.53 1015.86 1016.20 1016.50 1016.76 1016.99 1017.21 1017.43 1017.71 1018.04
1011.20 1012.05 1012.91 1013.60 1013.97 1013.92 1013.40 1012.49 1011.29 1010.01 1008.84 1007.97 1007.51 1007.51 1007.91 1008.62 1009.49 1010.35 1011.08 1011.59 1011.87 1011.96 1011.94 1011.91 1011.96 1012.14 1012.46 1012.92 1013.44 1013.96 1014.43 1014.79 1015.04 1015.21 1015.32 1015.42 1015.57 1015.77 1016.05 1016.38 1016.72 1017.05 1017.34 1017.57 1017.76 1017.91 1018.07 1018.27 1018.53
1010.68 1011.62 1012.57 1013.36 1013.80 1013.79 1013.28 1012.34 1011.08 1009.72 1008.46 1007.50 1006.97 1006.91 1007.30 1008.03 1008.96 1009.91 1010.74 1011.38 1011.79 1012.00 1012.08 1012.13 1012.23 1012.45 1012.81 1013.29 1013.84 1014.39 1014.90 1015.31 1015.62 1015.84 1016.00 1016.16 1016.35 1016.59 1016.90 1017.24 1017.60 1017.93 1018.21 1018.42 1018.58 1018.70 1018.81 1018.94 1019.13
1010.47 1011.40 1012.37 1013.16 1013.61 1013.59 1013.08 1012.11 1010.82 1009.41 1008.11 1007.10 1006.52 1006.42 1006.80 1007.54 1008.49 1009.51 1010.44 1011.18 1011.71 1012.03 1012.22 1012.36 1012.53 1012.80 1013.18 1013.68 1014.24 1014.82 1015.36 1015.81 1016.17 1016.44 1016.66 1016.87 1017.10 1017.38 1017.70 1018.06 1018.42 1018.75 1019.03 1019.24 1019.38 1019.48 1019.56 1019.65 1019.78
1010.61 1011.46 1012.34 1013.06 1013.44 1013.37 1012.82 1011.83 1010.53 1009.12 1007.80 1006.78 1006.18 1006.08 1006.43 1007.17 1008.14 1009.20 1010.19 1011.03 1011.65 1012.09 1012.38 1012.61 1012.85 1013.16 1013.58 1014.09 1014.67 1015.26 1015.82 1016.30 1016.69 1017.01 1017.28 1017.52 1017.78 1018.08 1018.41 1018.77 1019.13 1019.45 1019.73 1019.94 1020.08 1020.17 1020.23 1020.30 1020.39
1011.08 1011.78 1012.49 1013.05 1013.31 1013.14 1012.53 1011.52 1010.23 1008.84 1007.56 1006.57 1005.98 1005.87 1006.22 1006.94 1007.91 1008.98 1010.01 1010.91 1011.62 1012.15 1012.54 1012.86 1013.17 1013.54 1013.99 1014.52 1015.11 1015.71 1016.28 1016.78 1017.20 1017.55 1017.84 1018.11 1018.38 1018.68 1019.00 1019.34 1019.68 1020.00 1020.26 1020.47 1020.61 1020.70 1020.77 1020.83 1020.91
1011.75 1012.24 1012.74 1013.09 1013.17 1012.88 1012.20 1011.17 1009.91 1008.59 1007.37 1006.44 1005.89 1005.80 1006.13 1006.83 1007.78 1008.84 1009.88 1010.81 1011.59 1012.20 1012.68 1013.09 1013.48 1013.91 1014.40 1014.95 1015.55 1016.15 1016.73 1017.24 1017.68 1018.04 1018.35 1018.63 1018.90 1019.18 1019.47 1019.78 1020.09 1020.37 1020.62 1020.82 1020.96 1021.07 1021.15 1021.23 1021.31
1012.44 1012.70 1012.95 1013.07 1012.96 1012.53 1011.79 1010.76 1009.56 1008.32 1007.21 1006.35 1005.87 1005.80 1006.13 1006.80 1007.71 1008.74 1009.77 1010.71 1011.53 1012.21 1012.78 1013.27 1013.74 1014.23 1014.77 1015.35 1015.95 1016.56 1017.14 1017.66 1018.11 1018.49 1018.81 1019.09 1019.35 1019.60 1019.87 1020.13 1020.39 1020.64 1020.85 1021.03 1021.18 1021.30 1021.40 1021.50 1021.60
Thickness
5801 5801 5798 5789 5769 5747 5746 5759 5771 5775 5782 5792 5796 5791 5785 5780 5774 5772 5795 5803 5802 5798 5795 5791 5788 5785 5783 5781 5779 5778 5776 5775 5773 5772 5771 5769 5768 5766 5764 5763 5762 5761 5760 5759 5757 5756 5754 5753 5752
5800 5798 5790 5775 5751 5734 5743 5764 5770 5779 5789 5796 5795 5792 5786 5785 5792 5792 5796 5799 5800 5797 5793 5790 5786 5783 5781 5779 5777 5776 5774 5772 5771 5769 5768 5766 5765 5764 5762 5761 5760 5758 5757 5756 5755 5753 5752 5751 5750
5799 5796 5776 5759 5744 5738 5752 5770 5776 5786 5795 5794 5789 5790 5786 5784 5792 5794 5798 5799 5797 5794 5791 5788 5785 5782 5779 5777 5775 5773 5772 5770 5768 5767 5765 5764 5763 5761 5760 5759 5757 5756 5755 5754 5752 5751 5750 5748 5748
5793 5781 5767 5751 5748 5754 5763 5775 5782 5783 5789 5793 5788 5782 5787 5795 5796 5798 5800 5797 5793 5790 5788 5786 5783 5780 5777 5775 5772 5771 5769 5767 5766 5764 5762 5761 5760 5759 5758 5756 5755 5754 5752 5751 5750 5749 5747 5746 5746
5786 5767 5750 5738 5747 5761 5772 5780 5785 5781 5783 5788 5786 5778 5780 5793 5799 5798 5797 5794 5790 5787 5784 5782 5780 5778 5775 5772 5770 5767 5766 5764 5763 5762 5760 5758 5757 5756 5755 5754 5752 5751 5750 5749 5747 5746 5745 5744 5743
5767 5755 5735 5732 5747 5764 5776 5784 5785 5781 5782 5785 5782 5776 5778 5790 5793 5793 5793 5790 5788 5784 5781 5779 5777 5774 5771 5769 5767 5765 5763 5761 5760 5759 5757 5755 5754 5753 5752 5751 5749 5748 5747 5746 5745 5743 5742 5741 5741
5759 5745 5736 5741 5746 5759 5777 5787 5783 5779 5778 5782 5784 5772 5776 5784 5788 5790 5789 5786 5783 5781 5778 5775 5773 5771 5769 5766 5764 5762 5760 5758 5757 5755 5754 5752 5751 5750 5749 5747 5746 5745 5744 5743 5742 5740 5740 5739 5738
5765 5747 5741 5740 5747 5757 5777 5784 5786 5783 5780 5790 5788 5772 5772 5782 5786 5784 5782 5779 5777 5775 5773 5771 5769 5767 5765 5763 5761 5759 5757 5755 5753 5751 5750 5749 5748 5747 5745 5744 5743 5742 5741 5741 5740 5738 5737 5736 5736
5766 5740 5732 5743 5750 5761 5776 5777 5782 5789 5785 5786 5787 5785 5786 5787 5783 5777 5773 5770 5770 5769 5768 5766 5765 5763 5762 5760 5758 5756 5754 5751 5749 5748 5747 5745 5744 5743 5742 5741 5740 5739 5739 5738 5737 5736 5735 5734 5733
5753 5733 5743 5759 5765 5768 5773 5775 5778 5779 5776 5776 5779 5783 5786 5783 5778 5773 5768 5765 5764 5764 5763 5763 5761 5759 5758 5756 5754 5752 5750 5748 5746 5744 5743 5742 5741 5739 5738 5738 5737 5736 5735 5734 5734 5733 5732 5731 5729
5753 5746 5757 5766 5772 5773 5772 5775 5780 5773 5768 5776 5776 5778 5779 5777 5773 5769 5767 5766 5765 5764 5762 5760 5758 5756 5754 5753 5751 5749 5747 5744 5742 5740 5739 5738 5737 5736 5734 5733 5733 5732 5731 5730 5730 5729 5728 5727 5726
5752 5757 5763 5769 5775 5773 5772 5774 5774 5774 5779 5789 5787 5784 5778 5774 5770 5767 5766 5764 5763 5760 5759 5758 5756 5753 5751 5749 5747 5745 5743 5741 5738 5737 5735 5734 5733 5732 5730 5729 5728 5727 5727 5726 5725 5725 5724 5723 5722
5752 5757 5765 5769 5770 5771 5772 5771 5772 5775 5786 5788 5785 5780 5775 5772 5769 5767 5765 5763 5760 5758 5756 5755 5753 5750 5748 5745 5743 5741 5739 5737 5735 5733 5732 5731 5730 5728 5727 5725 5724 5724 5723 5723 5721 5721 5720 5719 5719
5755 5757 5760 5765 5767 5770 5766 5768 5768 5774 5782 5780 5777 5774 5773 5770 5767 5763 5761 5759 5757 5755 5754 5753 5750 5748 5745 5742 5740 5738 5736 5734 5732 5730 5728 5727 5726 5725 5723 5722 5720 5720 5720 5719 5718 5717 5716 5715 5715
5754 5749 5752 5759 5763 5765 5764 5756 5763 5774 5776 5771 5770 5770 5769 5767 5765 5763 5762 5759 5756 5753 5751 5749 5746 5744 5742 5739 5737 5735 5733 5731 5729 5727 5725 5723 5723 5722 5720 5718 5717 5716 5716 5715 5714 5713 5712 5711 5710
5744 5736 5730 5748 5757 5761 5753 5742 5763 5771 5768 5764 5764 5764 5762 5762 5761 5761 5759 5756 5754 5751 5748 5746 5744 5740 5738 5735 5733 5731 5730 5728 5726 5724 5722 5720 5720 5719 5717 5715 5714 5713 5712 5711 5710 5709 5707 5706 5705
5722 5716 5721 5735 5751 5752 5745 5740 5758 5765 5763 5759 5759 5758 5757 5756 5756 5757 5756 5754 5751 5748 5744 5741 5739 5737 5734 5732 5729 5727 5726 5724 5723 5721 5719 5717 5716 5716 5714 5712 5711 5710 5709 5707 5707 5704 5703 5701 5700
5711 5713 5717 5723 5740 5742 5736 5737 5749 5757 5757 5753 5753 5753 5752 5751 5751 5752 5751 5750 5747 5744 5740 5737 5735 5732 5730 5727 5725 5722 5721 5719 5718 5717 5715 5714 5713 5712 5711 5709 5708 5707 5705 5703 5702 5700 5699 5698 5697
5721 5716 5714 5725 5740 5734 5730 5733 5741 5749 5748 5747 5746 5746 5746 5747 5749 5748 5747 5745 5742 5738 5734 5732 5729 5727 5725 5722 5719 5717 5715 5714 5713 5712 5712 5711 5710 5709 5707 5706 5705 5704 5702 5700 5699 5697 5695 5693 5692
5717 5710 5712 5725 5736 5732 5725 5728 5738 5744 5744 5745 5744 5744 5743 5742 5742 5742 5742 5740 5737 5733 5730 5728 5725 5723 5722 5720 5718 5715 5713 5710 5709 5708 5707 5707 5707 5705 5705 5703 5702 5701 5699 5696 5695 5694 5691 5689 5688
5716 5710 5714 5717 5725 5728 5722 5719 5728 5738 5743 5743 5743 5743 5742 5740 5738 5738 5737 5736 5733 5731 5728 5726 5722 5720 5718 5717 5714 5711 5707 5705 5704 5704 5703 5703 5703 5702 5701 5699 5699 5697 5696 5694 5692 5691 5688 5685 5683
5711 5726 5723 5719 5709 5702 5713 5696 5717 5728 5730 5735 5737 5737 5737 5737 5736 5734 5733 5731 5729 5728 5725 5722 5719 5717 5715 5713 5710 5707 5704 5701 5701 5701 5700 5700 5700 5699 5697 5697 5696 5695 5693 5691 5689 5687 5686 5683 5679
5723 5731 5723 5717 5707 5698 5703 5693 5705 5721 5723 5729 5734 5736 5736 5736 5734 5732 5731 5729 5727 5724 5720 5717 5714 5712 5711 5709 5707 5704 5702 5700 5699 5698 5697 5697 5696 5695 5694 5693 5693 5692 5690 5687 5685 5684 5682 5680 5677
5731 5722 5712 5701 5692 5684 5697 5689 5696 5711 5722 5729 5733 5734 5734 5733 5732 5729 5728 5726 5723 5720 5716 5712 5709 5707 5706 5705 5704 5702 5700 5697 5695 5694 5694 5693 5692 5691 5690 5690 5689 5687 5686 5684 5683 5681 5679 5677 5675
5721 5700 5679 5677 5671 5678 5696 5691 5697 5721 5728 5730 5731 5731 5732 5730 5728 5725 5723 5722 5719 5715 5712 5709 5706 5703 5702 5701 5700 5699 5697 5695 5693 5692 5690 5689 5687 5686 5686 5686 5685 5683 5682 5681 5679 5677 5676 5674 5672
5713 5702 5677 5666 5665 5674 5689 5688 5706 5726 5730 5732 5731 5730 5728 5726 5724 5722 5721 5719 5716 5713 5709 5705 5703 5700 5698 5697 5696 5695 5694 5692 5691 5689 5688 5686 5684 5683 5682 5681 5680 5679 5678 5677 5675 5674 5672 5670 5668
5707 5697 5699 5678 5673 5668 5677 5692 5709 5723 5724 5724 5724 5723 5722 5722 5721 5719 5718 5715 5712 5709 5707 5704 5700 5696 5694 5693 5693 5691 5690 5688 5687 5686 5684 5682 5681 5680 5679 5677 5676 5675 5674 5673 5671 5669 5667 5666 5665
5715 5699 5681 5671 5661 5658 5673 5682 5691 5708 5712 5715 5716 5717 5717 5717 5716 5715 5713 5711 5708 5706 5703 5701 5698 5694 5692 5690 5689 5688 5686 5685 5684 5682 5680 5679 5678 5676 5675 5673 5672 5671 5669 5668 5666 5665 5663 5662 5661
5701 5693 5681 5667 5665 5658 5657 5674 5705 5707 5710 5710 5712 5714 5714 5712 5712 5710 5708 5706 5703 5700 5698 5696 5693 5690 5688 5686 5685 5684 5683 5682 5680 5678 5677 5676 5674 5673 5671 5670 5668 5667 5665 5664 5662 5661 5660 5658 5657
5706 5695 5680 5669 5665 5660 5657 5672 5710 5709 5710 5709 5709 5710 5710 5709 5707 5705 5702 5700 5697 5695 5693 5691 5688 5686 5685 5683 5681 5679 5678 5677 5676 5674 5673 5671 5670 5668 5667 5665 5664 5663 5662 5660 5659 5657 5656 5655 5653